Regional Weather Roundup
Issued by NWS

Home | Current Version | Previous Version | Graphics & Text | Print | Product List | Glossary On
Versions: 1 2 3 4 5 6 7 8 9 10 11 12 13 14 15 16 17 18 19 20 21 22 23 24 25 26 27 28 29 30 31 32 33 34 35 36 37 38 39 40 41 42 43 44 45 46 47 48 49 50
000
ASUS43 KFSD 200110
RWRSD

WEATHER ROUNDUP FOR SOUTH DAKOTA
NATIONAL WEATHER SERVICE SIOUX FALLS SD
700 PM CST SUN NOV 19 2017

NOTE: "FAIR" INDICATES FEW OR NO CLOUDS BELOW 12,000 FEET WITH NO
SIGNIFICANT WEATHER AND/OR OBSTRUCTIONS TO VISIBILITY.


SDZ001>005-009-010-012>017-200200-
NORTHWEST AND NORTH CENTRAL SOUTH DAKOTA

CITY           SKY/WX    TMP DP  RH WIND       PRES   REMARKS
BUFFALO          N/A     35  20  54 SW8       29.67F WCI  29
FAITH            N/A     37  24  59 S10       29.76F
MOBRIDGE       CLOUDY    36  24  62 SE8       29.75F
$$

SDZ012>016-024>037-041>051-057-063-072>074-200200-
SOUTHWEST AND SOUTH CENTRAL SOUTH DAKOTA

CITY           SKY/WX    TMP DP  RH WIND       PRES   REMARKS
RAPID CTY ARPT CLOUDY    36  18  48 N3        29.76S
PIERRE         CLOUDY    39  24  55 E3        29.78F
CUSTER         CLOUDY    38  13  35 W9        29.81F
ELLSWORTH AFB  CLOUDY    42  19  38 SW3       29.75F
PHILIP         CLOUDY    42  24  49 SE3       29.78F
PINE RIDGE     CLOUDY    35  18  49 SW3       29.82S
SPEARFISH      FAIR      46  16  29 W12       29.76F
WINNER         FAIR      45  21  38 S6        29.82F
$$

SDZ004>011-016>023-039-040-200200-
NORTHEAST SOUTH DAKOTA

CITY           SKY/WX    TMP DP  RH WIND       PRES   REMARKS
ABERDEEN       CLOUDY    35  22  58 CALM      29.80F
WATERTOWN      CLOUDY    35  25  66 SW8       29.80F WCI  29
BROOKINGS      CLOUDY    39  25  57 SW7       29.84F
SISSETON         N/A     40  24  53 W12       29.77F
$$

SDZ017-020-022-023-036>040-048>070-200200-
SOUTHEAST SOUTH DAKOTA

CITY           SKY/WX    TMP DP  RH WIND       PRES   REMARKS
SIOUX FALLS    CLOUDY    41  26  55 CALM      29.86F
HURON          CLOUDY    41  24  51 S7        29.81F
CHAMBERLAIN    CLOUDY    38  25  60 CALM      29.83S
MITCHELL       CLOUDY    40  25  55 S8        29.84F
YANKTON        CLOUDY    46  24  42 SE7       29.87F
$$

ABBREVIATIONS USED IN REMARKS
   TC - TEMPERATURE IN CELSIUS
  WCI - WIND CHILL INDEX
   HX - HEAT INDEX
  VSB - VISIBILITY





USA.gov is the U.S. government's official web portal to all federal, state and local government web resources and services.